CZ-3C DEB, 40200

Orbit data source: Space-Track

CZ-3C DEB, 40200 is space debris in HEO originally from a launch on Fri, 24 Feb 2012 UTC launched from the Xichang Space Center, China (XSC). Debris objects in space refer to the collection of defunct objects orbiting the Earth. Examples of debris include non-operational satellites, rocket bodies, and fragments generated from explosions, collisions, or faulty payload assembly.

Loading next visibility...
Identifier
40200, 2012-008K
Orbit
HEO
Country
Flag of CNCN / PRC
Related business
Manufacturer
CALT
Mission
Spacecraft
Bus & Motor
Unknown
Mass
Unknown
Launch date (UTC)
2012-02-24 (14 years ago)
Launch vehicle
Unknown
Launch site
Xichang Space Center, China (XSC)
Object type
Payload
Rocket body
Debris
Shape & HBR
Unknown shape, 0.1 m
Radar Cross Section
Medium (>0.1 m² and <1 m²)

Expand to show TLE details & history
Last TLE update: 4 days ago

TLE from 4 days ago
0 CZ-3C DEB
1 40200U 12008K   25287.45726727 -.00000153  00000-0  00000-0 0  9991
2 40200  21.2796 329.5482 6987213 359.3047   0.2461  2.19214658 93334
Epoch: 2025-10-14T10:58Z
TLE epoch observation values (Epoch: 2025-10-14T10:58:27.892Z)
Latitude
-0.0001°
Longitude
141.68795°
Altitude
1,164.432 km
Speed
9.474 km/s
True Right ascension
21h 58m 11s
True Declination
0° 00' 00"
Sunlit
Object was in full shadow at epoch
Visualization orbit readout
Latitude
Unknown
Longitude
Unknown
Altitude
Unknown
Speed
Unknown
Apparent Right ascension
Unknown
Apparent Declination
Unknown
Sunlit
N/A
Visualization observer readout
Local Sidereal Time
07:15:06
Azimuth
Unknown
Elevation
Unknown
Doppler factor
Unknown
Orbital elements
Apogee altitude
36,150.169 km
Perigee altitude
1,164.52 km
Semi-major axis
25,035.482 km
Eccentricity
0.69872
Inclination
21.2796°
RAAN
329.5482°
Arg. of periapsis
359.3047°
True anomaly
1.93933°
Mean anomaly
0.2461°
Eccentric anomaly
0.81679°
Mean motion
0.54791 °/min
Orbital period
657.04 mins
BSTAR
0
Loading maneuver chart data...
Computing Atmospheric mass density...
Loading historical data...
Loading historical data...
Loading historical data...
Loading historical data...
Loading historical data...
Loading historical data...
Loading historical data...

Documentation

Showing up to 5 results
|